�������l�o���
Date,Time,MP-1(��Sv/h),MP-2(��Sv/h),MP-3(��Sv/h),MP-4(��Sv/h),MP-5(��Sv/h),MP-6(��Sv/h),MP-7(��Sv/h),MP-8(��Sv/h),����,����(m/s),���J
2020/01/15,00:00,0.700,1.005,0.662,1.254,0.885,0.403,0.707,0.669,�k��,5.3,��
2020/01/15,00:10,0.701,1.003,0.664,1.253,0.884,0.402,0.705,0.671,�k��,6.3,��
2020/01/15,00:20,0.702,1.005,0.665,1.254,0.884,0.402,0.706,0.670,�k��,5.8,��
2020/01/15,00:30,0.700,1.006,0.664,1.254,0.884,0.401,0.706,0.671,�k�k��,5.5,��
2020/01/15,00:40,0.700,1.006,0.664,1.255,0.884,0.403,0.705,0.670,�k��,5.2,��
2020/01/15,00:50,0.702,1.004,0.666,1.254,0.885,0.401,0.705,0.671,�k��,6.3,��
2020/01/15,01:00,0.700,1.004,0.663,1.254,0.884,0.403,0.706,0.671,�k��,5.5,��
2020/01/15,01:10,0.700,1.005,0.664,1.253,0.883,0.403,0.706,0.672,�k�k��,5.8,�L
2020/01/15,01:20,0.698,1.003,0.664,1.255,0.886,0.404,0.705,0.668,�k��,5.3,�L
2020/01/15,01:30,0.701,1.002,0.667,1.254,0.885,0.403,0.706,0.670,�k�k��,5.2,�L
2020/01/15,01:40,0.702,1.005,0.665,1.255,0.886,0.402,0.707,0.670,�k��,6.6,�L
2020/01/15,01:50,0.702,1.006,0.666,1.256,0.886,0.401,0.705,0.670,�k�k��,6.1,�L
2020/01/15,02:00,0.703,1.003,0.665,1.255,0.885,0.403,0.704,0.672,�k�k��,6.0,�L
2020/01/15,02:10,0.700,1.005,0.663,1.257,0.885,0.404,0.705,0.671,�k�k��,5.5,�L
2020/01/15,02:20,0.701,1.004,0.666,1.256,0.888,0.402,0.707,0.670,�k�k��,6.0,�L
2020/01/15,02:30,0.701,1.003,0.666,1.256,0.883,0.404,0.705,0.669,�k�k��,5.2,�L
2020/01/15,02:40,0.700,1.003,0.665,1.257,0.884,0.404,0.704,0.670,�k��,5.3,�L
2020/01/15,02:50,0.702,1.004,0.665,1.255,0.884,0.405,0.705,0.670,�k��,6.3,�L
2020/01/15,03:00,0.699,1.000,0.663,1.254,0.879,0.405,0.705,0.668,�k��,5.8,�L
2020/01/15,03:10,0.700,1.000,0.663,1.253,0.879,0.405,0.706,0.670,�k��,6.6,�L
2020/01/15,03:20,0.700,0.995,0.661,1.252,0.880,0.405,0.704,0.669,�k��,6.6,�L
2020/01/15,03:30,0.696,0.994,0.662,1.251,0.878,0.405,0.703,0.668,�k��,6.3,�L
2020/01/15,03:40,0.695,0.992,0.660,1.248,0.875,0.404,0.703,0.666,�k�k��,7.2,�L
2020/01/15,03:50,0.695,0.990,0.658,1.247,0.876,0.404,0.702,0.668,�k��,6.6,�L
2020/01/15,04:00,0.694,0.989,0.658,1.247,0.874,0.405,0.701,0.669,�k��,6.3,�L
2020/01/15,04:10,0.693,0.989,0.659,1.246,0.872,0.405,0.703,0.668,�k��,6.9,�L
2020/01/15,04:20,0.695,0.989,0.658,1.245,0.874,0.403,0.702,0.666,�k�k��,6.6,�L
2020/01/15,04:30,0.694,0.986,0.656,1.241,0.871,0.403,0.701,0.668,�k��,6.7,�L
2020/01/15,04:40,0.693,0.984,0.656,1.242,0.872,0.403,0.700,0.667,�k��,6.9,�L
2020/01/15,04:50,0.691,0.985,0.657,1.242,0.870,0.404,0.701,0.666,�k�k��,6.4,�L
2020/01/15,05:00,0.692,0.985,0.655,1.242,0.870,0.404,0.699,0.667,�k��,6.3,�L
2020/01/15,05:10,0.690,0.987,0.656,1.240,0.868,0.403,0.702,0.667,�k��,7.1,�L
2020/01/15,05:20,0.689,0.983,0.656,1.239,0.868,0.403,0.701,0.665,�k��,7.1,�L
2020/01/15,05:30,0.691,0.983,0.656,1.239,0.865,0.404,0.700,0.664,�k�k��,7.8,�L
2020/01/15,05:40,0.692,0.981,0.653,1.237,0.867,0.403,0.699,0.664,�k�k��,7.2,�L
2020/01/15,05:50,0.690,0.979,0.653,1.235,0.865,0.403,0.699,0.664,�k�k��,6.7,�L
2020/01/15,06:00,0.691,0.979,0.654,1.231,0.864,0.401,0.700,0.665,�k��,6.3,�L
2020/01/15,06:10,0.690,0.979,0.652,1.233,0.865,0.403,0.699,0.665,�k��,7.4,�L
2020/01/15,06:20,0.687,0.980,0.652,1.229,0.864,0.402,0.701,0.665,�k�k��,6.3,�L
2020/01/15,06:30,0.689,0.978,0.652,1.229,0.863,0.401,0.699,0.665,�k��,7.7,�L
2020/01/15,06:40,0.689,0.978,0.652,1.228,0.865,0.402,0.698,0.663,�k��,7.4,�L
2020/01/15,06:50,0.689,0.976,0.652,1.227,0.863,0.402,0.698,0.666,�k��,6.4,�L
2020/01/15,07:00,0.686,0.977,0.650,1.225,0.862,0.401,0.697,0.664,�k��,6.3,�L
2020/01/15,07:10,0.688,0.974,0.653,1.224,0.862,0.401,0.696,0.664,�k��,6.6,�L
2020/01/15,07:20,0.687,0.976,0.651,1.225,0.860,0.401,0.696,0.664,�k�k��,6.0,�L
2020/01/15,07:30,0.687,0.975,0.648,1.225,0.862,0.401,0.697,0.663,�k�k��,6.9,�L
2020/01/15,07:40,0.686,0.972,0.649,1.224,0.860,0.399,0.697,0.664,�k�k��,6.4,�L
2020/01/15,07:50,0.686,0.973,0.649,1.224,0.859,0.401,0.696,0.662,�k�k��,8.2,�L
2020/01/15,08:00,0.684,0.974,0.648,1.222,0.859,0.402,0.696,0.662,�k�k��,6.6,�L
2020/01/15,08:10,0.683,0.970,0.647,1.224,0.857,0.400,0.697,0.663,�k�k��,7.1,�L
2020/01/15,08:20,0.685,0.965,0.648,1.218,0.858,0.401,0.696,0.663,�k�k��,7.4,�L
2020/01/15,08:30,0.685,0.970,0.647,1.217,0.855,0.398,0.695,0.662,�k�k��,6.4,�L
2020/01/15,08:40,0.683,0.967,0.646,1.219,0.857,0.400,0.696,0.663,�k�k��,7.7,�L
2020/01/15,08:50,0.687,0.967,0.647,1.219,0.857,0.399,0.696,0.662,�k�k��,8.9,�L
2020/01/15,09:00,0.683,0.968,0.646,1.217,0.856,0.398,0.694,0.663,�k�k��,8.3,�L
2020/01/15,09:10,0.686,0.968,0.644,1.217,0.857,0.400,0.695,0.662,�k�k��,7.4,�L
2020/01/15,09:20,0.684,0.970,0.642,1.216,0.859,0.398,0.695,0.663,�k�k��,8.2,�L
2020/01/15,09:30,0.683,0.966,0.644,1.216,0.857,0.398,0.697,0.663,�k�k��,7.1,�L
2020/01/15,09:40,0.682,0.966,0.645,1.216,0.857,0.399,0.695,0.661,�k��,7.7,�L
2020/01/15,09:50,0.684,0.967,0.644,1.217,0.857,0.399,0.693,0.663,�k�k��,6.9,�L
2020/01/15,10:00,0.682,0.965,0.644,1.218,0.856,0.399,0.698,0.662,�k�k��,7.2,�L
2020/01/15,10:10,0.682,0.965,0.644,1.216,0.856,0.398,0.695,0.663,�k��,7.7,�L
2020/01/15,10:20,0.680,0.964,0.644,1.213,0.855,0.400,0.696,0.660,�k�k��,7.1,�L
2020/01/15,10:30,0.683,0.963,0.645,1.213,0.855,0.398,0.695,0.662,�k�k��,7.8,�L
2020/01/15,10:40,0.681,0.964,0.645,1.212,0.852,0.398,0.695,0.662,�k��,8.2,�L
2020/01/15,10:50,0.681,0.963,0.643,1.213,0.846,0.398,0.692,0.660,�k�k��,8.5,�L
2020/01/15,11:00,0.683,0.962,0.644,1.210,0.836,0.399,0.696,0.661,�k�k��,7.7,�L
2020/01/15,11:10,0.681,0.964,0.645,1.209,0.842,0.397,0.695,0.659,�k�k��,7.7,�L
2020/01/15,11:20,0.684,0.959,0.644,1.210,0.823,0.399,0.694,0.662,�k��,8.2,�L
2020/01/15,11:30,0.682,0.962,0.644,1.212,0.840,0.399,0.695,0.662,�k��,8.2,�L
2020/01/15,11:40,0.681,0.963,0.644,1.210,0.843,0.400,0.694,0.662,�k�k��,8.3,�L
2020/01/15,11:50,0.683,0.963,0.643,1.212,0.840,0.400,0.695,0.661,�k�k��,8.0,�L
2020/01/15,12:00,0.682,0.963,0.643,1.210,0.839,0.398,0.696,0.663,�k�k��,8.0,�L
2020/01/15,12:10,0.683,0.963,0.643,1.211,0.846,0.398,0.694,0.662,�k�k��,8.2,�L
2020/01/15,12:20,0.682,0.962,0.643,1.211,0.846,0.398,0.694,0.660,�k�k��,6.7,�L
2020/01/15,12:30,0.682,0.963,0.643,1.208,0.845,0.398,0.694,0.661,�k�k��,6.9,�L
2020/01/15,12:40,0.681,0.962,0.642,1.210,0.844,0.397,0.694,0.661,�k�k��,7.8,�L
2020/01/15,12:50,0.681,0.961,0.644,1.210,0.843,0.399,0.694,0.660,�k�k��,7.1,�L
2020/01/15,13:00,0.681,0.961,0.641,1.211,0.843,0.399,0.694,0.661,�k�k��,8.2,�L
2020/01/15,13:10,0.683,0.963,0.642,1.210,0.841,0.397,0.693,0.660,�k��,8.8,�L
2020/01/15,13:20,0.684,0.962,0.643,1.212,0.836,0.397,0.693,0.661,�k�k��,8.2,�L
2020/01/15,13:30,0.683,0.966,0.644,1.213,0.836,0.399,0.693,0.659,�k�k��,8.0,�L
2020/01/15,13:40,0.683,0.966,0.642,1.211,0.833,0.398,0.694,0.660,�k�k��,8.8,�L
2020/01/15,13:50,0.682,0.966,0.642,1.214,0.833,0.396,0.694,0.661,�k�k��,8.8,�L
2020/01/15,14:00,0.683,0.965,0.644,1.212,0.833,0.398,0.696,0.662,�k�k��,7.4,�L
2020/01/15,14:10,0.683,0.966,0.645,1.213,0.833,0.395,0.697,0.663,�k�k��,9.1,��
2020/01/15,14:20,0.682,0.966,0.643,1.213,0.788,0.396,0.696,0.660,�k�k��,8.0,��
2020/01/15,14:30,0.684,0.965,0.644,1.214,0.763,0.398,0.695,0.661,�k�k��,6.1,�L
2020/01/15,14:40,0.684,0.967,0.643,1.213,0.783,0.395,0.695,0.662,�k�k��,6.3,�L
2020/01/15,14:50,0.683,0.965,0.645,1.215,0.797,0.398,0.693,0.662,�k�k��,8.8,�L
2020/01/15,15:00,0.683,0.967,0.645,1.216,0.811,0.395,0.693,0.661,�k�k��,6.4,�L
2020/01/15,15:10,0.683,0.967,0.644,1.218,0.817,0.395,0.693,0.664,�k�k��,6.6,�L
2020/01/15,15:20,0.682,0.970,0.644,1.216,0.815,0.395,0.693,0.662,�k�k��,6.9,�L
2020/01/15,15:30,0.684,0.969,0.645,1.214,0.823,0.397,0.693,0.662,�k�k��,6.6,��
2020/01/15,15:40,0.685,0.970,0.645,1.218,0.830,0.395,0.695,0.661,�k�k��,5.8,��
2020/01/15,15:50,0.686,0.970,0.643,1.215,0.824,0.395,0.694,0.662,�k�k��,6.7,��
2020/01/15,16:00,0.689,0.972,0.647,1.216,0.824,0.395,0.693,0.662,�k�k��,4.9,��
2020/01/15,16:10,0.687,0.972,0.645,1.220,0.809,0.396,0.694,0.660,�k�k��,6.0,��
2020/01/15,16:20,0.688,0.972,0.646,1.217,0.814,0.396,0.695,0.662,�k�k��,6.3,��
2020/01/15,16:30,0.687,0.974,0.646,1.219,0.807,0.395,0.695,0.662,�k�k��,4.9,��
2020/01/15,16:40,0.689,0.972,0.646,1.218,0.820,0.396,0.695,0.662,�k�k��,5.3,��
2020/01/15,16:50,0.687,0.973,0.648,1.216,0.822,0.396,0.695,0.662,�k,6.7,��
2020/01/15,17:00,0.687,0.976,0.646,1.218,0.812,0.397,0.697,0.662,�k�k��,6.6,��
2020/01/15,17:10,0.688,0.975,0.647,1.219,0.807,0.395,0.696,0.662,�k�k��,6.6,��
2020/01/15,17:20,0.687,0.974,0.645,1.219,0.824,0.395,0.696,0.663,�k�k��,6.0,��
2020/01/15,17:30,0.686,0.974,0.646,1.218,0.818,0.395,0.697,0.661,�k�k��,5.2,��
2020/01/15,17:40,0.688,0.976,0.646,1.219,0.856,0.395,0.699,0.663,�k��,5.2,��
2020/01/15,17:50,0.687,0.977,0.647,1.218,0.858,0.397,0.697,0.662,�k�k��,4.6,��
2020/01/15,18:00,0.687,0.975,0.647,1.220,0.858,0.396,0.695,0.662,�k��,5.6,��
2020/01/15,18:10,0.689,0.975,0.647,1.221,0.858,0.395,0.698,0.662,�k��,6.0,��
2020/01/15,18:20,0.689,0.974,0.648,1.220,0.857,0.397,0.696,0.662,�k��,4.7,��
2020/01/15,18:30,0.687,0.976,0.647,1.221,0.858,0.395,0.696,0.662,�k��,5.8,��
2020/01/15,18:40,0.689,0.975,0.647,1.219,0.859,0.395,0.696,0.661,�k��,5.8,��
2020/01/15,18:50,0.687,0.974,0.646,1.219,0.858,0.396,0.697,0.662,�k��,6.0,��
2020/01/15,19:00,0.686,0.977,0.648,1.220,0.858,0.397,0.695,0.662,�k��,6.9,�L
2020/01/15,19:10,0.690,0.977,0.650,1.222,0.860,0.395,0.696,0.662,�k��,6.3,�L
2020/01/15,19:20,0.688,0.977,0.648,1.219,0.861,0.397,0.696,0.662,�k��,5.2,�L
2020/01/15,19:30,0.689,0.978,0.648,1.223,0.859,0.397,0.696,0.662,�k��,5.3,��
2020/01/15,19:40,0.690,0.978,0.648,1.221,0.859,0.396,0.695,0.663,�k�k��,4.1,��
2020/01/15,19:50,0.690,0.975,0.650,1.222,0.857,0.398,0.697,0.662,�k�k��,3.3,��
2020/01/15,20:00,0.686,0.977,0.648,1.222,0.860,0.399,0.696,0.662,�k�k��,4.3,��
2020/01/15,20:10,0.688,0.976,0.649,1.221,0.860,0.398,0.697,0.662,�k�k��,4.5,��
2020/01/15,20:20,0.688,0.978,0.649,1.221,0.858,0.397,0.695,0.663,�k,3.8,��
2020/01/15,20:30,0.688,0.975,0.648,1.224,0.860,0.396,0.696,0.663,�k,4.3,��
2020/01/15,20:40,0.685,0.973,0.646,1.219,0.858,0.396,0.696,0.663,�k�k��,4.0,��
2020/01/15,20:50,0.688,0.975,0.648,1.220,0.857,0.396,0.693,0.662,�k�k��,3.2,��
2020/01/15,21:00,0.688,0.976,0.646,1.221,0.858,0.397,0.696,0.663,�k�k��,2.3,��
2020/01/15,21:10,0.687,0.975,0.647,1.220,0.859,0.396,0.695,0.663,���k��,3.4,��
2020/01/15,21:20,0.687,0.978,0.648,1.220,0.859,0.394,0.696,0.661,���k��,6.6,��
2020/01/15,21:30,0.686,0.975,0.648,1.222,0.860,0.397,0.694,0.663,���k��,8.5,��
2020/01/15,21:40,0.685,0.974,0.648,1.222,0.856,0.396,0.696,0.662,���k��,6.9,��
2020/01/15,21:50,0.685,0.976,0.647,1.222,0.859,0.397,0.696,0.662,�k��,7.1,��
2020/01/15,22:00,0.686,0.976,0.647,1.224,0.858,0.397,0.696,0.661,�k��,6.4,��
2020/01/15,22:10,0.687,0.975,0.647,1.224,0.858,0.396,0.697,0.662,�k��,7.1,��
2020/01/15,22:20,0.687,0.976,0.648,1.220,0.855,0.397,0.696,0.661,�k��,6.6,��
2020/01/15,22:30,0.688,0.975,0.647,1.224,0.859,0.396,0.696,0.662,�k��,7.8,��
2020/01/15,22:40,0.687,0.976,0.647,1.224,0.858,0.397,0.696,0.662,�k��,6.6,��
2020/01/15,22:50,0.686,0.976,0.648,1.224,0.860,0.397,0.697,0.663,�k��,5.8,��
2020/01/15,23:00,0.687,0.976,0.647,1.222,0.858,0.396,0.696,0.662,�k��,7.7,��
2020/01/15,23:10,0.686,0.975,0.648,1.224,0.859,0.396,0.694,0.663,���k��,8.0,��
2020/01/15,23:20,0.687,0.976,0.648,1.221,0.858,0.396,0.697,0.662,���k��,9.1,��
2020/01/15,23:30,0.687,0.976,0.647,1.223,0.858,0.396,0.696,0.661,���k��,7.4,��
2020/01/15,23:40,0.687,0.977,0.648,1.225,0.859,0.396,0.697,0.662,���k��,7.7,��
2020/01/15,23:50,0.687,0.977,0.650,1.221,0.860,0.397,0.697,0.663,���k��,6.6,��
